Tracking 30314 objects as of 20-Apr-2025
HD Live streaming from Space Station
objects crossing your sky now

ARIANE 44LP DEB

Track ARIANE 44LP DEB now!


NORAD ID: 33545
Int'l Code: 1988-109U
Perigee: 420.3 km
Apogee: 34,205.2 km
Inclination: 6.5 °
Period: 604.6 minutes
Semi major axis: 23683 km
RCS: 0.1258 m2 (medium)
Launch date: December 11, 1988
Source: France (FR)
Launch site: FRENCH GUIANA (FRGUI)

Note: This is SATELLITE DEBRIS
Your satellite tracking list
Your tracking list is empty




NASA's NSSDC Master Catalog

Two Line Element Set (TLE):
1 33545U 88109U   25104.05470478  .00000295  00000-0  84726-3 0  9999
2 33545   6.5361 246.0512 7132490  43.9270 354.3410  2.38192019  5879
Source of the keplerian elements: AFSPC